AEE122 LGAV-LGTS

Flight info

Callsign AEE122
Flight time 0h 43m
Altitude 32000
Route KRO UT162 NEVRA UT514 OSMOS
Aircraft A320/M-SDE3FGHIRWY/LB1

Departure

Time 2026-05-07 13:00
Airport Athens Eleftherios Venizelos International Airport (LGAV)

Arrival

Time 2026-05-07 13:43
Airport Thessaloniki Macedonia International Airport (LGTS)
Time Latitude Longitude Altitude Speed Heading
2026-05-07 12:23 37.93652 23.94883 301 ft 0 kts 306°
2026-05-07 12:48 37.93647 23.94893 301 ft 4 kts 307°
2026-05-07 12:49 37.93630 23.94919 302 ft 4 kts 314°
2026-05-07 12:49 37.93609 23.94941 303 ft 4 kts 333°
2026-05-07 12:49 37.93587 23.94947 301 ft 3 kts 34°
2026-05-07 12:49 37.93585 23.94946 301 ft 0 kts 37°
2026-05-07 12:52 37.93586 23.94947 301 ft 2 kts 37°
2026-05-07 12:52 37.93617 23.94977 301 ft 9 kts 38°
2026-05-07 12:52 37.93675 23.95033 300 ft 11 kts 37°
2026-05-07 12:53 37.93708 23.95114 301 ft 11 kts 104°
2026-05-07 12:53 37.93673 23.95186 299 ft 9 kts 127°
2026-05-07 12:53 37.93647 23.95266 297 ft 11 kts 78°
2026-05-07 12:53 37.93707 23.95334 301 ft 12 kts 33°
2026-05-07 12:54 37.93775 23.95400 296 ft 13 kts 38°
2026-05-07 12:54 37.93847 23.95468 300 ft 13 kts 36°
2026-05-07 12:54 37.93920 23.95536 298 ft 13 kts 37°
2026-05-07 12:54 37.93993 23.95606 300 ft 13 kts 38°
2026-05-07 12:55 37.94067 23.95678 298 ft 13 kts 37°
2026-05-07 12:55 37.94142 23.95748 299 ft 13 kts 37°
2026-05-07 12:55 37.94216 23.95816 301 ft 13 kts 36°
2026-05-07 12:55 37.94290 23.95887 299 ft 13 kts 37°
2026-05-07 12:56 37.94364 23.95960 300 ft 14 kts 35°
2026-05-07 12:56 37.94443 23.96031 299 ft 14 kts 35°
2026-05-07 12:56 37.94526 23.96112 299 ft 16 kts 37°
2026-05-07 12:56 37.94619 23.96199 300 ft 18 kts 36°
2026-05-07 12:57 37.94718 23.96293 299 ft 17 kts 37°
2026-05-07 12:57 37.94780 23.96352 300 ft 17 kts 37°
2026-05-07 12:57 37.94878 23.96447 302 ft 18 kts 37°
2026-05-07 12:57 37.94985 23.96549 303 ft 20 kts 37°
2026-05-07 12:58 37.95101 23.96659 303 ft 22 kts 37°
2026-05-07 12:58 37.95219 23.96769 304 ft 18 kts 35°
2026-05-07 12:58 37.95299 23.96857 306 ft 12 kts 62°
2026-05-07 12:58 37.95279 23.96929 306 ft 8 kts 127°
2026-05-07 12:59 37.95250 23.96978 308 ft 6 kts 126°
2026-05-07 12:59 37.95230 23.97014 311 ft 5 kts 125°
2026-05-07 12:59 37.95196 23.97024 310 ft 9 kts 199°
2026-05-07 12:59 37.95097 23.96932 309 ft 33 kts 217°
2026-05-07 13:00 37.94714 23.96568 300 ft 102 kts 217°
2026-05-07 13:00 37.94002 23.95893 333 ft 146 kts 219°
2026-05-07 13:00 37.93132 23.95116 760 ft 162 kts 212°
2026-05-07 13:00 37.92098 23.94389 1295 ft 176 kts 207°
2026-05-07 13:01 37.90993 23.93646 1963 ft 183 kts 206°
2026-05-07 13:01 37.89842 23.92890 2545 ft 194 kts 207°
2026-05-07 13:01 37.88555 23.92040 2824 ft 224 kts 208°
2026-05-07 13:01 37.87135 23.91065 3529 ft 237 kts 209°
2026-05-07 13:02 37.85536 23.90306 4183 ft 256 kts 186°
2026-05-07 13:02 37.83757 23.90623 5111 ft 266 kts 158°
2026-05-07 13:02 37.82223 23.91976 6059 ft 274 kts 138°
2026-05-07 13:02 37.80863 23.93702 6973 ft 280 kts 135°
2026-05-07 13:03 37.79630 23.95636 7842 ft 288 kts 119°
2026-05-07 13:03 37.79048 23.98071 8696 ft 295 kts 93°
2026-05-07 13:03 37.79343 24.00630 9550 ft 298 kts 67°
2026-05-07 13:03 37.80484 24.02796 10355 ft 299 kts 40°
2026-05-07 13:04 37.82259 24.04170 10904 ft 308 kts 15°
2026-05-07 13:04 37.84439 24.04471 11147 ft 327 kts 356°
2026-05-07 13:04 37.86758 24.04368 11433 ft 347 kts 356°
2026-05-07 13:04 37.89228 24.04252 12078 ft 354 kts 356°
2026-05-07 13:05 37.91703 24.04142 12822 ft 358 kts 355°
2026-05-07 13:05 37.94167 24.04042 13533 ft 361 kts 355°
2026-05-07 13:05 37.96682 24.03949 14215 ft 364 kts 355°
2026-05-07 13:05 37.99228 24.03858 14825 ft 367 kts 355°
2026-05-07 13:06 38.01828 24.03769 15424 ft 371 kts 355°
2026-05-07 13:06 38.04425 24.03681 15994 ft 376 kts 355°
2026-05-07 13:06 38.07023 24.03591 16556 ft 380 kts 355°
2026-05-07 13:06 38.09678 24.03498 17139 ft 384 kts 355°
2026-05-07 13:07 38.12363 24.03404 17724 ft 389 kts 354°
2026-05-07 13:07 38.15086 24.03305 18337 ft 393 kts 354°
2026-05-07 13:07 38.17838 24.03206 18874 ft 398 kts 354°
2026-05-07 13:07 38.20614 24.03105 19463 ft 401 kts 354°
2026-05-07 13:08 38.23419 24.03004 20077 ft 404 kts 354°
2026-05-07 13:08 38.26235 24.02905 20663 ft 407 kts 354°
2026-05-07 13:08 38.29072 24.02807 21219 ft 410 kts 354°
2026-05-07 13:08 38.31944 24.02709 21766 ft 413 kts 354°
2026-05-07 13:09 38.34817 24.02609 22298 ft 416 kts 354°
2026-05-07 13:09 38.37724 24.02504 22805 ft 418 kts 354°
2026-05-07 13:09 38.40639 24.02400 23311 ft 421 kts 354°
2026-05-07 13:09 38.43582 24.02294 23782 ft 424 kts 354°
2026-05-07 13:10 38.46532 24.02189 24041 ft 425 kts 354°
2026-05-07 13:10 38.49504 24.02084 24113 ft 432 kts 354°
2026-05-07 13:10 38.52548 24.01972 24128 ft 441 kts 354°
2026-05-07 13:10 38.55624 24.01859 24119 ft 444 kts 354°
2026-05-07 13:11 38.58711 24.01750 24124 ft 444 kts 354°
2026-05-07 13:11 38.61780 24.01458 24135 ft 439 kts 345°
2026-05-07 13:11 38.64665 24.00297 24131 ft 434 kts 334°
2026-05-07 13:11 38.67447 23.98803 24123 ft 434 kts 334°
2026-05-07 13:12 38.70238 23.97286 24119 ft 435 kts 333°
2026-05-07 13:12 38.73010 23.95765 24121 ft 435 kts 333°
2026-05-07 13:12 38.75796 23.94238 24125 ft 435 kts 333°
2026-05-07 13:12 38.78570 23.92723 24132 ft 435 kts 334°
2026-05-07 13:13 38.81320 23.91225 24131 ft 435 kts 334°
2026-05-07 13:13 38.84101 23.89709 24134 ft 435 kts 334°
2026-05-07 13:13 38.86892 23.88186 24129 ft 435 kts 334°
2026-05-07 13:13 38.89675 23.86667 24130 ft 435 kts 334°
2026-05-07 13:14 38.92462 23.85144 24133 ft 435 kts 333°
2026-05-07 13:14 38.95283 23.83596 24127 ft 435 kts 333°
2026-05-07 13:14 38.98023 23.82086 24128 ft 435 kts 333°
2026-05-07 13:14 39.00806 23.80547 24120 ft 436 kts 333°
2026-05-07 13:15 39.03594 23.79007 24115 ft 436 kts 333°
2026-05-07 13:15 39.06379 23.77474 24114 ft 436 kts 333°
2026-05-07 13:15 39.09176 23.75938 24109 ft 436 kts 333°
2026-05-07 13:15 39.11966 23.74405 24104 ft 437 kts 333°
2026-05-07 13:16 39.14793 23.72848 24109 ft 437 kts 333°
2026-05-07 13:16 39.17552 23.71325 24107 ft 437 kts 333°
2026-05-07 13:16 39.20339 23.69780 24108 ft 437 kts 333°
2026-05-07 13:16 39.23139 23.68230 24104 ft 437 kts 333°
2026-05-07 13:17 39.25931 23.66686 24108 ft 437 kts 333°
2026-05-07 13:17 39.28733 23.65137 24109 ft 438 kts 333°
2026-05-07 13:17 39.31533 23.63590 24109 ft 438 kts 333°
2026-05-07 13:17 39.34327 23.62044 24113 ft 438 kts 333°
2026-05-07 13:18 39.37128 23.60489 24114 ft 438 kts 333°
2026-05-07 13:18 39.39924 23.58931 24115 ft 438 kts 333°
2026-05-07 13:18 39.42727 23.57369 24120 ft 438 kts 333°
2026-05-07 13:18 39.45521 23.55811 24124 ft 438 kts 333°
2026-05-07 13:19 39.48328 23.54246 24128 ft 438 kts 333°
2026-05-07 13:19 39.51126 23.52686 24127 ft 438 kts 333°
2026-05-07 13:19 39.53922 23.51126 24129 ft 438 kts 333°
2026-05-07 13:19 39.56718 23.49567 24127 ft 438 kts 333°
2026-05-07 13:20 39.59522 23.48001 24127 ft 438 kts 333°
2026-05-07 13:20 39.62328 23.46428 24128 ft 438 kts 333°
2026-05-07 13:20 39.65127 23.44859 24127 ft 438 kts 333°
2026-05-07 13:20 39.67929 23.43286 24128 ft 438 kts 333°
2026-05-07 13:21 39.70727 23.41715 24128 ft 439 kts 333°
2026-05-07 13:21 39.73526 23.40143 24131 ft 439 kts 333°
2026-05-07 13:21 39.76324 23.38572 24127 ft 439 kts 333°
2026-05-07 13:21 39.79131 23.36995 24127 ft 439 kts 333°
2026-05-07 13:22 39.81928 23.35423 24128 ft 439 kts 333°
2026-05-07 13:22 39.84732 23.33844 24127 ft 439 kts 333°
2026-05-07 13:22 39.87528 23.32265 24131 ft 437 kts 333°
2026-05-07 13:22 39.90265 23.30721 24135 ft 424 kts 333°
2026-05-07 13:23 39.92958 23.29199 24134 ft 420 kts 333°
2026-05-07 13:23 39.95631 23.27685 24135 ft 419 kts 333°
2026-05-07 13:23 39.98309 23.26169 24134 ft 419 kts 333°
2026-05-07 13:23 40.00979 23.24653 24134 ft 419 kts 332°
2026-05-07 13:24 40.03642 23.23136 24135 ft 419 kts 332°
2026-05-07 13:24 40.06319 23.21610 24130 ft 419 kts 333°
2026-05-07 13:24 40.08984 23.20093 24132 ft 419 kts 333°
2026-05-07 13:24 40.11657 23.18573 24131 ft 419 kts 333°
2026-05-07 13:25 40.14328 23.17052 24130 ft 418 kts 332°
2026-05-07 13:25 40.16888 23.15277 23805 ft 416 kts 326°
2026-05-07 13:25 40.19350 23.13387 22976 ft 416 kts 326°
2026-05-07 13:25 40.21831 23.11470 22257 ft 413 kts 326°
2026-05-07 13:26 40.24300 23.09559 21600 ft 410 kts 326°
2026-05-07 13:26 40.26740 23.07668 20985 ft 406 kts 326°
2026-05-07 13:26 40.29144 23.05804 20416 ft 403 kts 326°
2026-05-07 13:26 40.31544 23.03942 19859 ft 400 kts 326°
2026-05-07 13:27 40.33932 23.02088 19370 ft 397 kts 326°
2026-05-07 13:27 40.36295 23.00253 18924 ft 395 kts 326°
2026-05-07 13:27 40.38651 22.98424 18465 ft 392 kts 326°
2026-05-07 13:27 40.40992 22.96607 17912 ft 389 kts 326°
2026-05-07 13:28 40.43314 22.94807 17382 ft 385 kts 326°
2026-05-07 13:28 40.45608 22.93030 16834 ft 382 kts 326°
2026-05-07 13:28 40.47888 22.91265 16311 ft 378 kts 326°
2026-05-07 13:28 40.50141 22.89519 15771 ft 374 kts 326°
2026-05-07 13:29 40.52366 22.87796 15246 ft 370 kts 326°
2026-05-07 13:29 40.54570 22.86087 14708 ft 366 kts 325°
2026-05-07 13:29 40.56538 22.84051 14189 ft 356 kts 312°
2026-05-07 13:29 40.58251 22.81735 13633 ft 352 kts 310°
2026-05-07 13:30 40.59937 22.79414 13053 ft 347 kts 310°
2026-05-07 13:30 40.61586 22.77139 12108 ft 341 kts 310°
2026-05-07 13:30 40.63213 22.74888 11127 ft 339 kts 310°
2026-05-07 13:30 40.64836 22.72637 10452 ft 338 kts 310°
2026-05-07 13:31 40.66426 22.70433 10273 ft 325 kts 310°
2026-05-07 13:31 40.67954 22.68323 10159 ft 311 kts 310°
2026-05-07 13:31 40.69423 22.66305 10037 ft 299 kts 310°
2026-05-07 13:31 40.70829 22.64384 9875 ft 282 kts 310°
2026-05-07 13:32 40.72166 22.62569 9406 ft 273 kts 310°
2026-05-07 13:32 40.73480 22.60780 8790 ft 270 kts 310°
2026-05-07 13:32 40.74780 22.58996 8170 ft 269 kts 310°
2026-05-07 13:32 40.76072 22.57209 7568 ft 269 kts 310°
2026-05-07 13:33 40.77401 22.55477 6993 ft 270 kts 322°
2026-05-07 13:33 40.79135 22.54517 6517 ft 275 kts 350°
2026-05-07 13:33 40.81036 22.54750 6111 ft 279 kts 19°
2026-05-07 13:33 40.82615 22.56137 5960 ft 271 kts 49°
2026-05-07 13:34 40.83482 22.58275 5836 ft 262 kts 78°
2026-05-07 13:34 40.83434 22.62910 5581 ft 247 kts 98°
2026-05-07 13:34 40.83231 22.65139 5459 ft 241 kts 98°
2026-05-07 13:35 40.83023 22.67314 5333 ft 235 kts 100°
2026-05-07 13:35 40.82489 22.69286 5214 ft 225 kts 121°
2026-05-07 13:35 40.81683 22.71007 5075 ft 217 kts 125°
2026-05-07 13:35 40.80863 22.72655 4874 ft 215 kts 126°
2026-05-07 13:36 40.80031 22.74310 4578 ft 216 kts 126°
2026-05-07 13:36 40.79204 22.75952 4429 ft 215 kts 125°
2026-05-07 13:36 40.78369 22.77594 4298 ft 215 kts 126°
2026-05-07 13:36 40.77536 22.79226 4169 ft 215 kts 125°
2026-05-07 13:37 40.76703 22.80854 4042 ft 212 kts 126°
2026-05-07 13:37 40.75882 22.82429 3907 ft 204 kts 130°
2026-05-07 13:37 40.74964 22.83809 3795 ft 196 kts 135°
2026-05-07 13:37 40.74041 22.85088 3703 ft 191 kts 135°
2026-05-07 13:38 40.73127 22.86338 3565 ft 189 kts 135°
2026-05-07 13:38 40.72214 22.87578 3435 ft 188 kts 135°
2026-05-07 13:38 40.71300 22.88812 3311 ft 188 kts 135°
2026-05-07 13:38 40.70403 22.90023 3188 ft 186 kts 135°
2026-05-07 13:39 40.69480 22.91206 3079 ft 184 kts 144°
2026-05-07 13:39 40.68368 22.91874 3009 ft 171 kts 167°
2026-05-07 13:39 40.67226 22.92235 2848 ft 167 kts 167°
2026-05-07 13:39 40.66100 22.92582 2687 ft 165 kts 167°
2026-05-07 13:40 40.64983 22.92927 2488 ft 165 kts 166°
2026-05-07 13:40 40.63870 22.93285 2288 ft 164 kts 166°
2026-05-07 13:40 40.62763 22.93654 2013 ft 164 kts 165°
2026-05-07 13:40 40.61661 22.94013 1734 ft 163 kts 165°
2026-05-07 13:41 40.60585 22.94352 1502 ft 154 kts 166°
2026-05-07 13:41 40.59568 22.94663 1272 ft 147 kts 166°
2026-05-07 13:41 40.58586 22.94971 1072 ft 143 kts 166°
2026-05-07 13:41 40.57623 22.95293 867 ft 142 kts 166°
2026-05-07 13:42 40.56662 22.95612 670 ft 143 kts 167°
2026-05-07 13:42 40.55694 22.95937 536 ft 145 kts 167°
2026-05-07 13:42 40.54723 22.96243 368 ft 143 kts 169°
2026-05-07 13:42 40.53749 22.96524 176 ft 143 kts 167°
2026-05-07 13:43 40.52777 22.96843 43 ft 144 kts 168°
2026-05-07 13:43 40.51916 22.97111 28 ft 105 kts 167°
2026-05-07 13:43 40.51375 22.97286 31 ft 55 kts 166°
2026-05-07 13:43 40.51128 22.97363 28 ft 30 kts 166°
2026-05-07 13:44 40.51001 22.97406 28 ft 22 kts 160°
2026-05-07 13:44 40.50967 22.97538 28 ft 17 kts 64°
2026-05-07 13:44 40.51074 22.97565 29 ft 18 kts 347°
2026-05-07 13:44 40.51206 22.97524 29 ft 21 kts 346°
2026-05-07 13:45 40.51354 22.97474 29 ft 23 kts 346°
2026-05-07 13:45 40.51515 22.97424 29 ft 25 kts 347°
2026-05-07 13:45 40.51685 22.97370 29 ft 25 kts 347°
2026-05-07 13:45 40.51826 22.97325 28 ft 22 kts 346°
2026-05-07 13:46 40.51982 22.97274 27 ft 23 kts 348°
2026-05-07 13:46 40.52118 22.97233 28 ft 16 kts 347°
2026-05-07 13:46 40.52229 22.97198 28 ft 18 kts 346°
2026-05-07 13:46 40.52328 22.97168 28 ft 12 kts 350°
2026-05-07 13:47 40.52389 22.97232 28 ft 13 kts 79°
2026-05-07 13:47 40.52400 22.97354 29 ft 14 kts 113°
2026-05-07 13:47 40.52372 22.97419 28 ft 6 kts 77°
2026-05-07 13:47 40.52400 22.97459 28 ft 3 kts 44°
2026-05-07 13:48 40.52402 22.97461 28 ft 0 kts 44°